Regional Weather Roundup
Issued by NWS

Home | Current Version | Previous Version | Text Only | Print | Product List | Glossary On
Versions: 1 2 3 4 5 6 7 8 9 10 11 12 13 14 15 16 17 18 19 20 21 22 23 24 25 26 27 28 29 30 31 32 33 34 35 36 37 38 39 40 41 42 43 44 45 46 47 48 49 50
000
ASUS45 KBOU 120507
RWRCO

WEATHER ROUNDUP FOR COLORADO
NATIONAL WEATHER SERVICE DENVER/BOULDER CO
1000 PM MST THU FEB 11 2016

NOTE: "FAIR" INDICATES FEW OR NO CLOUDS BELOW 12000 FEET WITH NO
SIGNIFICANT WEATHER AND/OR OBSTRUCTIONS TO VISIBILITY.

COZ001>005-013-030-031-120600-
...NORTHWEST COLORADO...

CITY           SKY/WX    TMP DP  RH WIND       PRES   REMARKS
CRAIG          CLOUDY    18  14  84 CALM      30.41R
HAYDEN         CLOUDY    27  16  63 E7        30.39S WCI  19
MEEKER         CLOUDY    24  15  68 E6        30.40R WCI  17
MOUNT WERNER   NOT AVBL
STEAMBOAT SPGS CLOUDY    21  16  82 CALM      30.40S
WALDEN         CLOUDY    30  12  47 S5        30.40S WCI  25
$$

COZ006>008-011-120600-
...WEST CENTRAL VALLEYS...

CITY           SKY/WX    TMP DP  RH WIND       PRES   REMARKS
GRAND JUNCTION CLOUDY    27  25  92 E3        30.41R
MONTROSE       CLOUDY    27  21  78 SE7       30.44R WCI  19
EAGLE          CLEAR     25  19  80 CALM      30.44R
RIFLE          CLOUDY    27  17  66 E5        30.42R WCI  22
DELTA          CLOUDY    32  28  83 CALM      30.43R
NUCLA          CLOUDY    32  27  80 E5        30.44S WCI  27
$$

COZ017>023-064>068-120600-
...SOUTHWEST COLORADO...

CITY           SKY/WX    TMP DP  RH WIND       PRES   REMARKS
DURANGO        CLOUDY    27  20  75 N6        30.39R WCI  20
CORTEZ         CLOUDY    27  22  81 NE6       30.39R WCI  20
PAGOSA SPRINGS CLOUDY    29  19  64 CALM      30.41S
TELLURIDE      CLOUDY    32  11  41 SE7       30.48S WCI  26
WOLF CREEK PAS CLOUDY    30   3  31 NE5       30.56S WCI  25
$$

COZ009-010-012-014-032>034-037-058>063-120600-
...CENTRAL COLORADO...

CITY           SKY/WX    TMP DP  RH WIND       PRES   REMARKS
ASPEN          CLOUDY    25  14  63 SW8       30.42S WCI  16
BUENA VISTA    CLOUDY    32  20  62 NE5       30.40R WCI  27
COPPER MTN     CLOUDY    28  10  47 W17       30.49F WCI  16
BERTHOUD PASS  FAIR      19  10  68 NW37G47   30.42S WCI  -1
COTTONWOOD PAS CLOUDY    37  12  35 W8G16     30.44R
GUNNISON       CLOUDY     0 -17  46 CALM      30.51S
KREMMLING      CLOUDY     9   3  78 W3        30.46R
LEADVILLE      CLOUDY    29  11  47 CALM      30.44R
MONARCH PASS   CLOUDY    27  12  54 W16       30.61S WCI  14
SALIDA         NOT AVBL
SUNLIGHT       CLOUDY    32  12  43 CALM        N/A
WILKERSON PASS CLOUDY    32  16  51 NW9G20    30.50R WCI  24
$$

COZ069>075-120600-
...SAN LUIS VALLEY/SANGRE DE CRISTO MOUNTAINS...

CITY           SKY/WX    TMP DP  RH WIND       PRES   REMARKS
ALAMOSA        CLOUDY    28  21  75 NW7       30.39S WCI  21
LA VETA PASS   CLOUDY    32  14  47 MISG      30.45S
SAGUACHE       CLOUDY    32  16  51 N7        30.41S WCI  26
$$

COZ035-036-038>040-120600-
...NORTHERN COLORADO FRONT RANGE...

CITY           SKY/WX    TMP DP  RH WIND       PRES   REMARKS
DENVER INTL AP PTCLDY    36  26  67 S15       30.26S
DMNS CITY PARK   N/A     42  25  52 E10       30.27S
AURORA         PTCLDY    37  26  62 S10       30.28S
FRONT RANGE AP NOT AVBL
ERIE MUNI ARPT CLEAR     44  26  49 CALM      30.25S
BOULDER MUN AP CLEAR     41  28  60 CALM      30.24S
CENTENNIAL     CLOUDY    41  25  53 S9        30.28R
BROOMFIELD     PTCLDY    45  27  49 SE6       30.27R
FORT COLLINS   CLOUDY    39  27  60 S12       30.25S
LONGMONT       CLOUDY    35  29  78 CALM      30.27S
$$

COZ041-046-047-076>085-087-088-120600-
...PIKES PEAK/PALMER DIVIDE AND SOUTHERN FOOTHILLS...

CITY           SKY/WX    TMP DP  RH WIND       PRES   REMARKS
COLO. SPRINGS  CLOUDY    39  24  55 N3        30.31S
A. F. ACADEMY  CLOUDY    32  23  69 N9        30.30S WCI  25
SCHRIEVER AFB  FAIR      38  24  58 N7        30.31R
ELLICOTT       CLOUDY   N/A N/A N/A CALM      30.30R
FALCON         CLOUDY    36  22  57 N10       30.32S
FORT CARSON    CLOUDY    42  25  50 W1        30.30R HAZE
LIMON          CLOUDY    31  24  75 W6        30.29R WCI  25
MONUMENT HILL  CLOUDY    30  21  69 S8        30.33R WCI  23
TRINIDAD       CLOUDY    42  22  44 NE10      30.32R
$$

COZ042>045-048>051-090-091-120600-
...NORTHEAST COLORADO...

CITY           SKY/WX    TMP DP  RH WIND       PRES   REMARKS
GREELEY ARPT   CLOUDY    37  28  70 SW3       30.26S
AKRON          CLOUDY    35  26  69 W3        30.25R
BURLINGTON     CLOUDY    33  26  75 NW10      30.25R WCI  25
WRAY           NOT AVBL
STERLING       CLOUDY    36  30  80 N3        30.22F
HOLYOKE        CLOUDY    45  30  57 NW12G18   30.23S
FORT MORGAN    CLOUDY    38  25  60 CALM      30.27R
$$

COZ086-089-092>099-120600-
...SOUTHEAST COLORADO...

CITY           SKY/WX    TMP DP  RH WIND       PRES   REMARKS
PUEBLO         CLOUDY    37  25  61 NW5       30.30R
LA JUNTA       CLOUDY    38  28  67 W7        30.28R
LAMAR          CLOUDY    33  23  66 W5        30.24R WCI  29
SPRINGFIELD      N/A     31  21  66 NW10      30.26R WCI  22
$$



USA.gov is the U.S. government's official web portal to all federal, state and local government web resources and services.